169P/NEAT (2022)

Japanese version
Home page
Updated on October 22, 2022

---------------------------------------------------------------------

* Profile

* Orbital Elements

Epoch 2022 Aug. 9.0 TT = JDT 2459800.5
T 2022 July  9.68232 TT                                 Rudenko
q   0.6028241            (2000.0)            P               Q
n   0.23480838     Peri.  218.04513     +0.82678565     -0.56235941
a   2.6021180      Node   176.10213     +0.55209861     +0.80670942
e   0.7683333      Incl.   11.29854     +0.10776181     +0.18158138
P   4.20
From 1294 observations 1989 Mar. 7-2022 June 7, mean residual 0".5.

* Finding Charts

* Magnitudes Graph

        H = 15.3  G = 0.15                [   ,-61]  (             - 2022 May   9)
        m1 = 15.8 + 5 log d + 20.0 log r  [-61, 50]  (2022 May   9 - 2022 Aug. 28)
        H = 15.3  G = 0.15                [ 50,   ]  (2022 Aug. 28 -             )

---------------------------------------------------------------------

The orbital elements are published on M.P.E.C. 2022-M21.
The charts are made with StellaNavigator Ver.10 (AstroArts).
The magnitudes graphs are made with Comet for Windows.

---------------------------------------------------------------------

Copyright(C) Seiichi Yoshida (comet@aerith.net). All rights reserved.